User: anonymous   Login
Location: Unspecified
(0.0000°N, 0.0000°E)
Time: 22:37:05
(UTC+02:00)
Language:

Iridium 39 - Orbit

View from above orbital plane
View from above orbital plane
View from above satellite
View from above satellite

Ground track
Ground track

The orbit data is extracted from the following two-line orbital elements,

1 25042U 97069D   16275.50606162  .00000222  00000-0  56307-4 0  9992
2 25042  86.3912 129.5991 0021112  92.7022 267.6597 14.46089766989334
Epoch (UTC): 01 October 2016 12:08:43
Eccentricity: 0.0021112
inclination: 86.3912°
perigee height: 723 km
apogee height: 753 km
right ascension of ascending node: 129.5991°
argument of perigee: 92.7022°
revolutions per day: 14.46089766
mean anomaly at epoch: 267.6597°
orbit number at epoch: 98933

The dashed part of the orbit path shows where the satellite is in the earth's shadow,  

DLR